CDT,Max TemperatureF,Mean TemperatureF,Min TemperatureF,Max Dew PointF,MeanDew PointF,Min DewpointF,Max Humidity, Mean Humidity, Min Humidity, Max Sea Level PressureIn, Mean Sea Level PressureIn, Min Sea Level PressureIn, Max VisibilityMiles, Mean VisibilityMiles, Min VisibilityMiles, Max Wind SpeedMPH, Mean Wind SpeedMPH, Max Gust SpeedMPH,PrecipitationIn, CloudCover, Events, WindDirDegrees
2013-3-1,29,16,2,20,16,-1,92,79,66,30.36,30.30,30.22,10,10,7,16,9,23,0.00,5,Snow,352
2013-3-2,34,16,-1,26,14,-5,96,82,65,30.35,30.21,30.03,10,9,0,13,4,,0.00,4,Fog,159
2013-3-3,35,30,24,30,27,23,93,85,79,30.02,29.84,29.68,10,8,5,20,10,24,0.00,4,,147
2013-3-4,36,32,27,32,27,18,90,80,58,30.02,29.80,29.65,10,9,4,20,9,32,0.00,6,,11
2013-3-5,28,24,21,22,19,15,84,76,69,30.39,30.19,30.01,10,9,2,34,21,43,0.00,7,Snow,322
2013-3-6,34,26,17,24,19,15,91,80,61,30.41,30.33,30.20,10,10,10,14,8,17,0.00,4,Snow,116
2013-3-7,47,34,22,32,26,20,92,77,52,30.22,30.14,30.06,10,10,10,24,14,29,0.00,0,,144
2013-3-8,49,38,27,39,32,26,93,79,61,30.17,30.05,29.87,10,9,4,22,7,25,0.05,3,Rain-Thunderstorm,133
2013-3-9,50,40,31,47,39,30,99,96,88,29.86,29.71,29.60,7,3,1,22,12,29,0.45,8,Rain-Snow-Thunderstorm,88
2013-3-10,32,26,21,31,23,17,96,90,84,29.98,29.93,29.79,10,6,0,30,22,39,0.17,8,Snow,342
2013-3-11,34,24,15,27,19,12,90,79,57,29.99,29.91,29.84,10,10,5,22,12,29,0.00,3,Snow,319
2013-3-12,32,27,22,26,22,18,90,76,67,30.31,30.15,30.00,10,10,5,28,13,37,0.00,5,Snow,312
2013-3-13,36,26,16,27,21,14,89,79,63,30.39,30.31,30.17,10,10,10,15,6,21,0.00,1,,184
2013-3-14,59,45,31,46,35,24,97,75,54,30.16,30.08,30.02,10,10,4,15,8,17,0.00,1,,248
2013-3-15,52,42,32,45,39,32,99,82,69,30.03,29.83,29.75,10,9,2,16,8,24,0.00,2,,324
2013-3-16,32,26,21,32,23,19,100,80,64,30.18,30.09,29.91,10,9,2,23,15,31,0.00,7,Snow,5
2013-3-17,42,31,21,34,24,18,95,76,56,30.15,29.93,29.68,10,10,2,20,12,30,0.01,6,Rain-Snow,126
2013-3-18,36,28,19,36,17,10,97,63,40,30.04,29.86,29.68,10,9,2,31,19,43,0.00,3,,307
2013-3-19,47,30,13,20,15,10,88,64,32,30.36,30.15,30.05,10,10,10,23,5,30,0.00,1,,332
2013-3-20,33,22,12,13,7,2,81,57,31,30.39,30.28,30.09,10,10,10,16,10,23,0.00,0,,340
2013-3-21,31,24,17,21,14,11,79,63,48,30.08,29.99,29.91,10,10,10,12,7,21,0.00,5,,122
2013-3-22,31,28,25,26,22,19,83,78,71,30.04,29.99,29.96,10,9,3,10,7,,0.00,8,Snow,119
2013-3-23,33,30,27,31,27,24,96,88,72,30.13,30.09,30.01,10,7,1,20,5,24,0.00,8,Rain-Snow,24
2013-3-24,28,24,20,24,20,16,90,81,70,30.12,30.08,30.04,10,8,2,22,16,30,0.00,7,Snow,333
2013-3-25,29,26,23,24,20,17,91,80,67,30.34,30.23,30.12,10,8,2,23,17,30,0.00,8,Snow,337
2013-3-26,41,26,10,22,16,8,90,66,33,30.34,30.28,30.19,10,10,10,12,4,,0.00,1,,174
2013-3-27,53,38,24,29,24,21,87,61,32,30.24,30.20,30.15,10,10,10,18,9,24,0.00,0,,155
2013-3-28,54,38,22,32,29,22,97,67,38,30.23,30.20,30.16,10,9,4,12,5,,0.00,3,,158
2013-3-29,68,46,25,48,33,24,96,59,24,30.20,30.12,30.00,10,9,4,20,7,29,0.05,2,Rain,175
2013-3-30,62,50,37,50,42,34,100,79,35,30.03,29.96,29.92,10,8,0,20,6,24,0.13,4,Fog-Rain-Thunderstorm,327
2013-3-31,50,38,25,36,30,17,99,74,29,30.19,30.02,29.96,10,8,1,18,7,26,0.00,3,Rain-Snow,337